This demonstration page uses our WeatherBlox Daily Observations layout. Learn more.

Left ArrowRight Arrow

38.89511, -77.03637

Hourly Observations for December 26, 2020

Temp ( °F °C ) Dew Point ( °F °C ) Humidity (%) Winds ( mph kmh ) Pressure ( in mb ) Visibility ( mi km ) Precip ( " mm )
12:52 am 00:52 Mostly Clear 23 -5 9 -12.8 55 55 WSW 7 11 29.98 1015 10 16 0.00 0.00
1:52 am 01:52 Partly Cloudy 25 -3.9 7 -13.9 46 46 WSW 10 17 29.99 1016 10 16 0.00 0.00
2:52 am 02:52 Partly Cloudy 24 -4.4 8 -13.3 50 50 WSW 9 15 30.01 1016 10 16 0.00 0.00
3:52 am 03:52 Mostly Cloudy 25 -3.9 7 -13.9 46 46 WSW 8 13 30.01 1016 10 16 0.00 0.00
4:52 am 04:52 Cloudy 25 -3.9 9 -12.8 50 50 SW 9 15 30.02 1017 10 16 0.00 0.00
5:52 am 05:52 Partly Cloudy 24 -4.4 10 -12.2 55 55 SW 10 17 30.04 1017 10 16 0.00 0.00
6:52 am 06:52 Mostly Clear 24 -4.4 9 -12.8 52 52 SW 9 15 30.05 1018 10 16 0.00 0.00
7:52 am 07:52 Mostly Sunny 24 -4.4 9 -12.8 52 52 WSW 9 15 30.06 1018 10 16 0.00 0.00
8:52 am 08:52 Partly Cloudy 26 -3.3 9 -12.8 48 48 WSW 13 20 30.07 1018 10 16 0.00 0.00
9:52 am 09:52 Mostly Sunny 28 -2.2 9 -12.8 44 44 WSW 10 17 30.08 1019 10 16 0.00 0.00
10:52 am 10:52 Partly Cloudy 31 -0.6 10 -12.2 42 42 WSW 13 20 30.06 1018 10 16 0.00 0.00
11:52 am 11:52 Mostly Cloudy 31 -0.6 9 -12.8 40 40 W 12 19 30.04 1017 10 16 0.00 0.00
12:52 pm 12:52 Partly Cloudy 34 1.1 11 -11.7 38 38 W 8 13 30.02 1017 10 16 0.00 0.00
1:52 pm 13:52 Mostly Cloudy 35 1.7 11 -11.7 37 37 WSW 12 19 30.00 1016 10 16 0.00 0.00
2:52 pm 14:52 Mostly Cloudy 35 1.7 11 -11.7 37 37 WSW 10 17 29.99 1016 10 16 0.00 0.00
3:52 pm 15:52 Mostly Cloudy 36 2.2 12 -11.1 37 37 W 10 17 30.01 1016 10 16 0.00 0.00
4:52 pm 16:52 Mostly Cloudy 35 1.7 12 -11.1 38 38 WSW 6 9 30.02 1017 10 16 0.00 0.00
5:52 pm 17:52 Partly Cloudy 34 1.1 13 -10.6 42 42 SW 3 6 30.04 1017 10 16 0.00 0.00
6:52 pm 18:52 Mostly Cloudy 34 1.1 15 -9.4 46 46 W 3 6 30.06 1018 10 16 0.00 0.00
7:52 pm 19:52 Cloudy 34 1.1 14 -10 44 44 NNW 7 11 30.08 1019 10 16 0.00 0.00
8:52 pm 20:52 Mostly Cloudy 33 0.6 14 -10 45 45 N 9 15 30.11 1020 10 16 0.00 0.00
9:52 pm 21:52 Mostly Clear 31 -0.6 15 -9.4 52 52 NNW 8 13 30.12 1020 10 16 0.00 0.00
10:52 pm 22:52 Mostly Clear 31 -0.6 15 -9.4 52 52 N 10 17 30.15 1021 10 16 0.00 0.00
11:52 pm 23:52 Mostly Clear 29 -1.7 16 -8.9 58 58 N 7 11 30.16 1021 10 16 0.00 0.00

Powered by AerisWeather